�������l�o���
Date,Time,MP-1(��Sv/h),MP-2(��Sv/h),MP-3(��Sv/h),MP-4(��Sv/h),MP-5(��Sv/h),MP-6(��Sv/h),MP-7(��Sv/h),MP-8(��Sv/h),����,����(m/s),���J
2024/02/23,00:00,0.482,0.722,0.453,0.905,0.647,0.301,0.539,0.507,�k�k��,4.6,��
2024/02/23,00:10,0.479,0.723,0.455,0.905,0.648,0.301,0.538,0.507,�k�k��,5.0,��
2024/02/23,00:20,0.480,0.719,0.455,0.906,0.647,0.301,0.538,0.507,�k�k��,5.8,��
2024/02/23,00:30,0.480,0.722,0.453,0.907,0.648,0.300,0.538,0.507,�k�k��,4.7,��
2024/02/23,00:40,0.481,0.722,0.456,0.904,0.648,0.301,0.538,0.508,�k�k��,4.6,��
2024/02/23,00:50,0.482,0.723,0.453,0.906,0.647,0.301,0.538,0.508,�k�k��,5.0,��
2024/02/23,01:00,0.482,0.722,0.456,0.907,0.648,0.300,0.537,0.509,�k�k��,5.7,��
2024/02/23,01:10,0.483,0.724,0.454,0.906,0.648,0.300,0.538,0.508,�k�k��,6.5,��
2024/02/23,01:20,0.480,0.724,0.455,0.907,0.647,0.301,0.540,0.508,�k�k��,6.7,��
2024/02/23,01:30,0.481,0.724,0.455,0.908,0.648,0.301,0.538,0.509,�k�k��,6.7,��
2024/02/23,01:40,0.480,0.725,0.455,0.910,0.646,0.301,0.538,0.509,�k�k��,6.3,��
2024/02/23,01:50,0.480,0.724,0.455,0.908,0.648,0.302,0.538,0.509,�k�k��,6.1,��
2024/02/23,02:00,0.481,0.725,0.455,0.908,0.647,0.301,0.539,0.508,�k�k��,6.5,��
2024/02/23,02:10,0.481,0.723,0.456,0.908,0.648,0.300,0.537,0.507,�k�k��,7.3,��
2024/02/23,02:20,0.482,0.724,0.455,0.908,0.648,0.300,0.539,0.509,�k�k��,6.2,��
2024/02/23,02:30,0.481,0.725,0.455,0.912,0.649,0.301,0.540,0.508,�k�k��,6.6,��
2024/02/23,02:40,0.480,0.723,0.455,0.909,0.650,0.301,0.539,0.509,�k�k��,5.7,��
2024/02/23,02:50,0.483,0.724,0.457,0.909,0.648,0.302,0.539,0.508,�k�k��,6.2,��
2024/02/23,03:00,0.482,0.725,0.456,0.907,0.650,0.301,0.539,0.509,�k�k��,6.5,��
2024/02/23,03:10,0.482,0.724,0.455,0.910,0.647,0.301,0.538,0.509,�k�k��,5.4,��
2024/02/23,03:20,0.482,0.727,0.457,0.907,0.650,0.302,0.540,0.509,�k�k��,5.6,��
2024/02/23,03:30,0.481,0.727,0.456,0.909,0.650,0.301,0.539,0.509,�k�k��,5.7,��
2024/02/23,03:40,0.482,0.727,0.456,0.910,0.649,0.301,0.538,0.509,�k�k��,5.2,��
2024/02/23,03:50,0.482,0.725,0.456,0.910,0.650,0.300,0.539,0.510,�k�k��,5.3,��
2024/02/23,04:00,0.482,0.724,0.457,0.911,0.651,0.301,0.539,0.510,�k�k��,5.5,��
2024/02/23,04:10,0.483,0.726,0.456,0.910,0.650,0.301,0.540,0.508,�k�k��,6.0,��
2024/02/23,04:20,0.481,0.726,0.455,0.912,0.650,0.302,0.539,0.510,�k�k��,6.7,��
2024/02/23,04:30,0.482,0.725,0.457,0.909,0.650,0.301,0.540,0.508,�k�k��,8.1,��
2024/02/23,04:40,0.482,0.726,0.457,0.911,0.649,0.301,0.539,0.509,�k�k��,8.5,��
2024/02/23,04:50,0.483,0.727,0.457,0.910,0.650,0.301,0.540,0.509,�k,6.6,��
2024/02/23,05:00,0.481,0.724,0.456,0.912,0.651,0.301,0.540,0.511,�k�k��,7.3,��
2024/02/23,05:10,0.483,0.727,0.457,0.913,0.648,0.300,0.539,0.508,�k�k��,6.1,��
2024/02/23,05:20,0.482,0.728,0.457,0.909,0.651,0.300,0.539,0.509,�k�k��,6.1,��
2024/02/23,05:30,0.483,0.728,0.456,0.912,0.649,0.300,0.541,0.509,�k�k��,6.4,��
2024/02/23,05:40,0.482,0.726,0.458,0.911,0.651,0.301,0.538,0.509,�k�k��,6.1,��
2024/02/23,05:50,0.483,0.727,0.458,0.911,0.650,0.301,0.539,0.509,�k�k��,6.4,��
2024/02/23,06:00,0.483,0.725,0.459,0.912,0.650,0.302,0.541,0.510,�k�k��,5.7,��
2024/02/23,06:10,0.485,0.727,0.458,0.912,0.650,0.301,0.539,0.509,�k�k��,5.9,��
2024/02/23,06:20,0.483,0.727,0.458,0.911,0.649,0.302,0.541,0.508,�k�k��,5.6,��
2024/02/23,06:30,0.483,0.728,0.457,0.911,0.650,0.301,0.539,0.508,�k��,4.9,��
2024/02/23,06:40,0.481,0.727,0.457,0.912,0.652,0.302,0.540,0.510,�k��,5.1,��
2024/02/23,06:50,0.483,0.727,0.457,0.914,0.652,0.302,0.541,0.510,�k��,5.5,��
2024/02/23,07:00,0.482,0.727,0.458,0.912,0.652,0.302,0.540,0.510,�k�k��,5.5,��
2024/02/23,07:10,0.482,0.726,0.458,0.912,0.652,0.301,0.540,0.511,�k��,6.5,��
2024/02/23,07:20,0.484,0.728,0.457,0.913,0.651,0.300,0.540,0.511,�k��,7.3,��
2024/02/23,07:30,0.483,0.728,0.459,0.912,0.652,0.303,0.540,0.510,�k�k��,6.7,��
2024/02/23,07:40,0.483,0.727,0.458,0.914,0.651,0.300,0.540,0.510,�k�k��,6.0,��
2024/02/23,07:50,0.482,0.729,0.458,0.913,0.653,0.303,0.541,0.511,�k�k��,6.4,��
2024/02/23,08:00,0.485,0.729,0.458,0.915,0.652,0.300,0.540,0.511,�k�k��,5.7,��
2024/02/23,08:10,0.483,0.729,0.458,0.914,0.651,0.302,0.541,0.510,�k�k��,5.4,��
2024/02/23,08:20,0.483,0.728,0.458,0.914,0.652,0.303,0.539,0.511,�k�k��,5.2,��
2024/02/23,08:30,0.483,0.728,0.457,0.915,0.653,0.303,0.543,0.511,�k��,5.2,��
2024/02/23,08:40,0.484,0.729,0.458,0.915,0.653,0.302,0.542,0.511,�k��,5.4,��
2024/02/23,08:50,0.481,0.730,0.459,0.915,0.653,0.303,0.541,0.510,�k�k��,5.3,��
2024/02/23,09:00,0.483,0.730,0.458,0.916,0.652,0.301,0.541,0.510,�k�k��,4.8,��
2024/02/23,09:10,0.484,0.730,0.459,0.915,0.654,0.302,0.540,0.512,�k��,5.3,��
2024/02/23,09:20,0.484,0.729,0.458,0.913,0.654,0.302,0.542,0.511,�k�k��,4.7,��
2024/02/23,09:30,0.485,0.729,0.460,0.915,0.654,0.303,0.543,0.513,�k�k��,4.5,��
2024/02/23,09:40,0.484,0.731,0.459,0.914,0.654,0.302,0.541,0.512,�k�k��,5.1,��
2024/02/23,09:50,0.486,0.730,0.458,0.917,0.655,0.302,0.542,0.512,�k�k��,4.9,��
2024/02/23,10:00,0.484,0.733,0.461,0.915,0.657,0.301,0.542,0.511,�k�k��,4.8,��
2024/02/23,10:10,0.485,0.730,0.460,0.915,0.656,0.303,0.543,0.512,�k�k��,4.0,��
2024/02/23,10:20,0.487,0.731,0.460,0.915,0.658,0.302,0.541,0.512,�k�k��,4.5,��
2024/02/23,10:30,0.486,0.730,0.461,0.917,0.655,0.301,0.543,0.511,�k�k��,4.3,��
2024/02/23,10:40,0.486,0.732,0.461,0.919,0.658,0.302,0.544,0.511,�k�k��,5.5,�L
2024/02/23,10:50,0.488,0.733,0.463,0.920,0.658,0.303,0.544,0.509,�k�k��,5.3,��
2024/02/23,11:00,0.486,0.732,0.464,0.920,0.659,0.303,0.544,0.512,�k�k��,4.7,�L
2024/02/23,11:10,0.488,0.734,0.464,0.918,0.660,0.304,0.543,0.512,�k�k��,4.2,�L
2024/02/23,11:20,0.489,0.735,0.463,0.919,0.661,0.303,0.543,0.512,�k�k��,4.1,��
2024/02/23,11:30,0.487,0.734,0.463,0.920,0.660,0.304,0.544,0.510,�k�k��,4.9,��
2024/02/23,11:40,0.488,0.737,0.465,0.916,0.660,0.302,0.543,0.511,�k�k��,5.0,��
2024/02/23,11:50,0.488,0.734,0.464,0.921,0.662,0.303,0.544,0.511,�k�k��,6.0,��
2024/02/23,12:00,0.488,0.736,0.464,0.919,0.661,0.303,0.545,0.513,�k�k��,6.1,�L
2024/02/23,12:10,0.489,0.738,0.466,0.918,0.661,0.303,0.545,0.512,�k,6.7,�L
2024/02/23,12:20,0.490,0.736,0.465,0.921,0.662,0.304,0.545,0.512,�k�k��,6.3,�L
2024/02/23,12:30,0.489,0.737,0.465,0.922,0.663,0.304,0.544,0.512,�k,6.0,�L
2024/02/23,12:40,0.493,0.737,0.467,0.921,0.664,0.305,0.545,0.512,�k�k��,5.8,�L
2024/02/23,12:50,0.490,0.738,0.467,0.919,0.664,0.303,0.544,0.513,�k�k��,5.5,�L
2024/02/23,13:00,0.493,0.737,0.468,0.923,0.664,0.305,0.546,0.512,�k�k��,6.7,�L
2024/02/23,13:10,0.493,0.741,0.468,0.923,0.663,0.304,0.545,0.514,�k,5.4,�L
2024/02/23,13:20,0.492,0.740,0.469,0.923,0.664,0.305,0.545,0.513,�k,4.9,�L
2024/02/23,13:30,0.492,0.741,0.466,0.921,0.664,0.305,0.545,0.512,�k,6.0,��
2024/02/23,13:40,0.492,0.741,0.467,0.923,0.665,0.304,0.547,0.511,�k,5.3,��
2024/02/23,13:50,0.492,0.737,0.467,0.922,0.665,0.304,0.545,0.512,�k,5.0,��
2024/02/23,14:00,0.491,0.739,0.468,0.920,0.664,0.304,0.546,0.511,�k,5.3,��
2024/02/23,14:10,0.491,0.740,0.466,0.920,0.665,0.303,0.545,0.512,�k�k��,4.9,��
2024/02/23,14:20,0.491,0.741,0.469,0.919,0.665,0.304,0.547,0.512,�k,5.0,��
2024/02/23,14:30,0.491,0.740,0.467,0.922,0.664,0.303,0.544,0.512,�k�k��,4.7,��
2024/02/23,14:40,0.492,0.740,0.465,0.919,0.665,0.305,0.546,0.512,�k�k��,5.5,��
2024/02/23,14:50,0.491,0.739,0.468,0.923,0.665,0.304,0.545,0.513,�k�k��,5.9,��
2024/02/23,15:00,0.491,0.739,0.466,0.920,0.665,0.303,0.545,0.512,�k�k��,6.9,��
2024/02/23,15:10,0.491,0.740,0.467,0.921,0.663,0.305,0.546,0.512,�k�k��,6.5,��
2024/02/23,15:20,0.492,0.741,0.467,0.923,0.664,0.305,0.546,0.513,�k�k��,5.9,��
2024/02/23,15:30,0.491,0.741,0.466,0.921,0.664,0.304,0.548,0.513,�k�k��,5.9,��
2024/02/23,15:40,0.492,0.739,0.467,0.920,0.664,0.304,0.545,0.511,�k�k��,5.7,��
2024/02/23,15:50,0.493,0.740,0.467,0.923,0.665,0.303,0.547,0.511,�k�k��,5.6,��
2024/02/23,16:00,0.491,0.741,0.465,0.922,0.664,0.304,0.546,0.512,�k�k��,5.4,��
2024/02/23,16:10,0.491,0.742,0.468,0.921,0.665,0.303,0.548,0.511,�k,5.7,��
2024/02/23,16:20,0.493,0.741,0.467,0.923,0.665,0.303,0.546,0.512,�k�k��,6.2,��
2024/02/23,16:30,0.492,0.742,0.466,0.923,0.666,0.304,0.546,0.511,�k�k��,4.6,��
2024/02/23,16:40,0.492,0.743,0.468,0.923,0.665,0.303,0.546,0.513,�k�k��,5.3,��
2024/02/23,16:50,0.493,0.739,0.466,0.923,0.668,0.304,0.545,0.512,�k�k��,5.3,��
2024/02/23,17:00,0.492,0.743,0.469,0.922,0.665,0.305,0.546,0.512,�k,4.5,��
2024/02/23,17:10,0.492,0.742,0.467,0.924,0.665,0.303,0.547,0.512,�k�k��,5.0,��
2024/02/23,17:20,0.491,0.742,0.468,0.925,0.666,0.304,0.545,0.512,�k�k��,5.4,��
2024/02/23,17:30,0.494,0.742,0.466,0.924,0.666,0.303,0.547,0.512,�k�k��,5.6,��
2024/02/23,17:40,0.491,0.741,0.467,0.921,0.666,0.304,0.547,0.512,�k�k��,5.3,��
2024/02/23,17:50,0.492,0.743,0.468,0.924,0.665,0.304,0.546,0.513,�k�k��,5.4,��
2024/02/23,18:00,0.493,0.743,0.468,0.923,0.666,0.304,0.546,0.514,�k�k��,5.6,��
2024/02/23,18:10,0.493,0.742,0.469,0.925,0.665,0.303,0.546,0.513,�k�k��,5.2,��
2024/02/23,18:20,0.492,0.743,0.467,0.925,0.666,0.304,0.545,0.512,�k�k��,5.5,��
2024/02/23,18:30,0.492,0.743,0.468,0.924,0.665,0.303,0.545,0.512,�k�k��,4.5,��
2024/02/23,18:40,0.491,0.744,0.468,0.922,0.666,0.304,0.545,0.512,�k�k��,5.7,��
2024/02/23,18:50,0.491,0.745,0.466,0.923,0.664,0.302,0.545,0.511,�k�k��,5.6,��
2024/02/23,19:00,0.494,0.745,0.469,0.924,0.666,0.304,0.546,0.512,�k�k��,3.9,��
2024/02/23,19:10,0.491,0.741,0.468,0.924,0.665,0.305,0.546,0.511,�k�k��,3.9,��
2024/02/23,19:20,0.493,0.743,0.467,0.927,0.666,0.304,0.545,0.511,�k�k��,2.9,��
2024/02/23,19:30,0.493,0.743,0.468,0.922,0.665,0.304,0.546,0.512,�k��,3.2,��
2024/02/23,19:40,0.493,0.743,0.467,0.926,0.666,0.304,0.547,0.512,�k�k��,3.1,��
2024/02/23,19:50,0.493,0.744,0.468,0.923,0.664,0.304,0.547,0.513,�k�k��,4.3,��
2024/02/23,20:00,0.491,0.744,0.468,0.925,0.665,0.304,0.546,0.512,�k�k��,5.9,��
2024/02/23,20:10,0.491,0.743,0.467,0.923,0.666,0.303,0.546,0.513,�k�k��,7.1,��
2024/02/23,20:20,0.492,0.743,0.467,0.924,0.667,0.303,0.546,0.512,�k�k��,7.5,��
2024/02/23,20:30,0.492,0.743,0.469,0.923,0.667,0.303,0.545,0.513,�k�k��,6.2,��
2024/02/23,20:40,0.493,0.743,0.468,0.924,0.666,0.304,0.546,0.512,�k�k��,6.2,��
2024/02/23,20:50,0.493,0.742,0.467,0.925,0.665,0.304,0.545,0.512,�k�k��,7.2,��
2024/02/23,21:00,0.492,0.743,0.468,0.925,0.666,0.304,0.544,0.514,�k�k��,5.9,��
2024/02/23,21:10,0.491,0.744,0.468,0.927,0.665,0.304,0.544,0.512,�k�k��,6.1,��
2024/02/23,21:20,0.493,0.743,0.468,0.924,0.666,0.304,0.544,0.512,�k�k��,6.0,��
2024/02/23,21:30,0.493,0.743,0.468,0.925,0.665,0.304,0.545,0.513,�k�k��,6.7,��
2024/02/23,21:40,0.493,0.743,0.468,0.925,0.666,0.303,0.544,0.512,�k�k��,7.3,��
2024/02/23,21:50,0.493,0.744,0.468,0.924,0.667,0.303,0.545,0.513,�k�k��,7.1,��
2024/02/23,22:00,0.494,0.745,0.468,0.924,0.665,0.304,0.546,0.512,�k,7.5,��
2024/02/23,22:10,0.492,0.743,0.468,0.925,0.665,0.304,0.544,0.513,�k�k��,8.2,��
2024/02/23,22:20,0.492,0.744,0.467,0.925,0.666,0.304,0.545,0.512,�k�k��,7.1,��
2024/02/23,22:30,0.493,0.742,0.466,0.924,0.667,0.304,0.545,0.512,�k�k��,6.2,��
2024/02/23,22:40,0.492,0.743,0.469,0.926,0.666,0.305,0.545,0.513,�k�k��,5.9,��
2024/02/23,22:50,0.492,0.742,0.467,0.926,0.665,0.303,0.544,0.512,�k�k��,5.7,��
2024/02/23,23:00,0.493,0.743,0.466,0.925,0.665,0.304,0.545,0.512,�k�k��,4.5,��
2024/02/23,23:10,0.492,0.743,0.467,0.926,0.665,0.304,0.545,0.512,�k�k��,6.4,��
2024/02/23,23:20,0.493,0.742,0.467,0.925,0.666,0.304,0.545,0.512,�k�k��,7.0,��
2024/02/23,23:30,0.492,0.743,0.466,0.926,0.665,0.303,0.545,0.512,�k�k��,7.4,��
2024/02/23,23:40,0.492,0.743,0.468,0.925,0.666,0.304,0.543,0.510,�k�k��,5.6,��
2024/02/23,23:50,0.494,0.742,0.467,0.926,0.665,0.303,0.546,0.512,�k�k��,7.2,��
